Batavia, OH

3:24 AM EST on December 04, 2016 (GMT -0500)
Clermont County, Batavia

Weather History for KI69 - April, 2014

Change the Weather History Date:

Saturday, April 12, 2014

  Actual Average (KCVG) Record (KCVG)
Temperature  
Mean Temperature 62 °F 53 °F  
Max Temperature 78 °F 64 °F 87 °F (1930)
Min Temperature 46 °F 43 °F 23 °F (1940)
Degree Days  
Heating Degree Days 3 12  
Month to date heating degree days 170  
Since 1 July heating degree days 4663  
Cooling Degree Days 0 0  
Month to date cooling degree days 0  
Year to date cooling degree days 0  
Growing Degree Days 12 (Base 50)    
Moisture  
Dew Point 47 °F    
Average Humidity 55    
Maximum Humidity 88    
Minimum Humidity 34    
Precipitation  
Precipitation 0.00 in 0.13 in 0.83 in (1961)
Month to date precipitation 1.53  
Year to date precipitation 11.30  
Snow  
Snow 0.00 in 0.10 in 0.60 in (1959)
Month to date snowfall 0.4  
Since 1 July snowfall 22.0  
Snow Depth -    
Sea Level Pressure  
Sea Level Pressure 30.06 in    
Wind  
Wind Speed 4 mph (South)    
Max Wind Speed 16 mph    
Max Gust Speed 23 mph    
Visibility 10 miles    
Events      
T = Trace of Precipitation, MM = Missing Value Source: NWS Daily Summary

Daily Weather History Graph

Daily Weather History Graph

Search for Another Location

Airport or City:

Trip Planner

Search our weather history database for the weather conditions in past years. The results will help you decide how hot, cold, wet, or windy it might be!

Date:

Astronomy

Apr. 12, 2014 Rise Set
Actual Time 7:04 AM EDT 8:11 PM EDT
Civil Twilight 6:37 AM EDT 8:38 PM EDT
Nautical Twilight 6:04 AM EDT 9:11 PM EDT
Astronomical Twilight 5:30 AM EDT 9:45 PM EDT
Moon 5:49 PM EDT (4/12) 5:29 AM EDT (4/12)
Length of Visible Light 14h 01m
Length of Day
13h 06m
Waxing Gibbous, 93% of the Moon is Illuminated
Apr 12
Waxing Gibbous
Apr 15
Full
Apr 22
Last Quarter
Apr 29
New
May 6
First Quarter

Hourly Weather History & Observations

Time (EDT) Temp. Windchill Dew Point Humidity Pressure Visibility Wind Dir Wind Speed Gust Speed Precip Events Conditions
12:16 AM 53.6 °F - 33.8 °F 47% 30.11 in 10.0 mi Calm Calm - N/A   Clear
12:36 AM 53.6 °F - 35.6 °F 51% 30.11 in 10.0 mi Calm Calm - N/A   Clear
12:56 AM 53.6 °F - 35.6 °F 51% 30.11 in 10.0 mi Calm Calm - N/A   Clear
1:16 AM 53.6 °F - 35.6 °F 51% 30.11 in 10.0 mi Calm Calm - N/A   Clear
1:36 AM 51.8 °F - 35.6 °F 54% 30.11 in 10.0 mi SSE 3.5 mph - N/A   Clear
1:56 AM 51.8 °F - 37.4 °F 58% 30.11 in 10.0 mi Calm Calm - N/A   Clear
2:16 AM 51.8 °F - 37.4 °F 58% 30.11 in 10.0 mi Calm Calm - N/A   Clear
2:36 AM 50.0 °F - 37.4 °F 62% 30.11 in 10.0 mi Calm Calm - N/A   Clear
2:56 AM 50.0 °F - 37.4 °F 62% 30.11 in 10.0 mi Calm Calm - N/A   Clear
3:16 AM 50.0 °F - 39.2 °F 66% 30.11 in 10.0 mi Calm Calm - N/A   Clear
3:36 AM 50.0 °F - 41.0 °F 71% 30.11 in 10.0 mi Calm Calm - N/A   Clear
3:56 AM 50.0 °F - 42.8 °F 76% 30.12 in 10.0 mi Calm Calm - N/A   Clear
4:16 AM 48.2 °F - 42.8 °F 82% 30.12 in 10.0 mi Calm Calm - N/A   Clear
4:36 AM 48.2 °F - 42.8 °F 82% 30.12 in 10.0 mi Calm Calm - N/A   Clear
4:56 AM 46.4 °F 45.2 °F 42.8 °F 87% 30.13 in 10.0 mi South 3.5 mph - N/A   Clear
5:16 AM 46.4 °F - 42.8 °F 87% 30.14 in 10.0 mi Calm Calm - N/A   Clear
5:36 AM 46.4 °F - 42.8 °F 87% 30.14 in 10.0 mi Calm Calm - N/A   Clear
5:56 AM 50.0 °F - 46.4 °F 87% 30.15 in 10.0 mi SSE 3.5 mph - N/A   Mostly Cloudy
6:16 AM 48.2 °F - 44.6 °F 87% 30.15 in 10.0 mi SE 3.5 mph - N/A   Mostly Cloudy
6:36 AM 50.0 °F - 46.4 °F 87% 30.15 in 10.0 mi SSE 3.5 mph - N/A   Scattered Clouds
6:56 AM 51.8 °F - 46.4 °F 82% 30.15 in 10.0 mi SSE 3.5 mph - N/A   Mostly Cloudy
7:16 AM 51.8 °F - 46.4 °F 82% 30.16 in 10.0 mi SSE 4.6 mph - N/A   Scattered Clouds
7:36 AM 51.8 °F - 46.4 °F 82% 30.16 in 10.0 mi Calm Calm - N/A   Mostly Cloudy
7:56 AM 51.8 °F - 46.4 °F 82% 30.17 in 10.0 mi Calm Calm - N/A   Overcast
8:16 AM 51.8 °F - 48.2 °F 88% 30.17 in 10.0 mi Calm Calm - N/A   Mostly Cloudy
8:36 AM 53.6 °F - 48.2 °F 82% 30.17 in 10.0 mi Calm Calm - N/A   Mostly Cloudy
8:56 AM 55.4 °F - 46.4 °F 72% 30.16 in 10.0 mi SE 3.5 mph - N/A   Scattered Clouds
9:15 AM 59.0 °F - 46.4 °F 63% 30.16 in 10.0 mi SSE 8.1 mph - N/A   Mostly Cloudy
9:36 AM 59.0 °F - 46.4 °F 63% 30.16 in 10.0 mi SE 3.5 mph - N/A   Mostly Cloudy
9:56 AM 62.6 °F - 48.2 °F 59% 30.16 in 10.0 mi SE 5.8 mph - N/A   Mostly Cloudy
10:16 AM 64.4 °F - 46.4 °F 52% 30.15 in 10.0 mi SSE 6.9 mph 17.3 mph N/A   Scattered Clouds
10:36 AM 68.0 °F - 48.2 °F 49% 30.15 in 10.0 mi SSE 12.7 mph 18.4 mph N/A   Clear
10:56 AM 68.0 °F - 50.0 °F 52% 30.15 in 10.0 mi South 12.7 mph 17.3 mph N/A   Clear
11:16 AM 68.0 °F - 50.0 °F 52% 30.15 in 10.0 mi South 9.2 mph - N/A   Clear
11:36 AM 69.8 °F - 48.2 °F 46% 30.15 in 10.0 mi South 10.4 mph - N/A   Clear
11:56 AM 71.6 °F - 48.2 °F 43% 30.14 in 10.0 mi South 9.2 mph - N/A   Scattered Clouds
12:16 PM 71.6 °F - 50.0 °F 46% 30.13 in 10.0 mi SSW 11.5 mph 16.1 mph N/A   Clear
12:36 PM 71.6 °F - 51.8 °F 50% 30.12 in 10.0 mi SSW 9.2 mph - N/A   Mostly Cloudy
12:56 PM 73.4 °F - 51.8 °F 47% 30.10 in 10.0 mi South 11.5 mph 18.4 mph N/A   Scattered Clouds
1:15 PM 73.4 °F - 51.8 °F 47% 30.09 in 10.0 mi SSW 10.4 mph 18.4 mph N/A   Scattered Clouds
1:36 PM 75.2 °F - 51.8 °F 44% 30.07 in 10.0 mi South 10.4 mph 19.6 mph N/A   Scattered Clouds
1:56 PM 77.0 °F - 50.0 °F 39% 30.06 in 10.0 mi South 9.2 mph 18.4 mph N/A   Scattered Clouds
2:16 PM 75.2 °F - 50.0 °F 41% 30.05 in 10.0 mi South 12.7 mph 19.6 mph N/A   Mostly Cloudy
2:36 PM 75.2 °F - 51.8 °F 44% 30.04 in 10.0 mi SSW 10.4 mph 18.4 mph N/A   Mostly Cloudy
2:56 PM 77.0 °F - 50.0 °F 39% 30.03 in 10.0 mi SSW 12.7 mph 23.0 mph N/A   Scattered Clouds
3:16 PM 77.0 °F - 50.0 °F 39% 30.02 in 10.0 mi SSW 13.8 mph 21.9 mph N/A   Mostly Cloudy
3:36 PM 77.0 °F - 51.8 °F 41% 30.01 in 10.0 mi South 10.4 mph 19.6 mph N/A   Scattered Clouds
3:56 PM 77.0 °F - 50.0 °F 39% 30.00 in 10.0 mi SSW 11.5 mph 21.9 mph N/A   Scattered Clouds
4:16 PM 78.8 °F - 50.0 °F 36% 29.99 in 10.0 mi SSW 13.8 mph 21.9 mph N/A   Scattered Clouds
4:36 PM 77.0 °F - 50.0 °F 39% 29.98 in 10.0 mi SW 16.1 mph 19.6 mph N/A   Scattered Clouds
4:56 PM 78.8 °F - 50.0 °F 36% 29.98 in 10.0 mi SW 9.2 mph 18.4 mph N/A   Scattered Clouds
5:16 PM 78.8 °F - 48.2 °F 34% 29.97 in 10.0 mi SSW 10.4 mph 23.0 mph N/A   Scattered Clouds
5:36 PM 77.0 °F - 50.0 °F 39% 29.97 in 10.0 mi SW 10.4 mph 19.6 mph N/A   Scattered Clouds
5:56 PM 77.0 °F - 50.0 °F 39% 29.97 in 10.0 mi SSW 12.7 mph 18.4 mph N/A   Clear
6:16 PM 77.0 °F - 50.0 °F 39% 29.96 in 10.0 mi South 12.7 mph 19.6 mph N/A   Scattered Clouds
6:36 PM 77.0 °F - 48.2 °F 36% 29.96 in 10.0 mi South 13.8 mph 20.7 mph N/A   Scattered Clouds
6:56 PM 77.0 °F - 48.2 °F 36% 29.95 in 10.0 mi SSW 11.5 mph 18.4 mph N/A   Scattered Clouds
7:16 PM 77.0 °F - 48.2 °F 36% 29.95 in 10.0 mi South 10.4 mph 17.3 mph N/A   Clear
7:36 PM 77.0 °F - 48.2 °F 36% 29.94 in 10.0 mi South 6.9 mph 17.3 mph N/A   Clear
7:56 PM 75.2 °F - 46.4 °F 36% 29.94 in 10.0 mi South 9.2 mph - N/A   Clear
8:16 PM 73.4 °F - 48.2 °F 41% 29.94 in 10.0 mi South 5.8 mph - N/A   Clear
8:36 PM 73.4 °F - 48.2 °F 41% 29.93 in 10.0 mi South 5.8 mph - N/A   Clear
8:56 PM 71.6 °F - 48.2 °F 43% 29.93 in 10.0 mi South 3.5 mph - N/A   Clear
9:16 PM 71.6 °F - 48.2 °F 43% 29.93 in 10.0 mi South 5.8 mph - N/A   Clear
9:36 PM 71.6 °F - 50.0 °F 46% 29.92 in 10.0 mi South 3.5 mph - N/A   Clear
9:56 PM 71.6 °F - 50.0 °F 46% 29.92 in 10.0 mi SSW 5.8 mph - N/A   Clear
10:16 PM 71.6 °F - 50.0 °F 46% 29.92 in 10.0 mi SSW 6.9 mph - N/A   Clear
10:36 PM 71.6 °F - 50.0 °F 46% 29.92 in 10.0 mi SSW 5.8 mph - N/A   Clear
10:56 PM 71.6 °F - 50.0 °F 46% 29.91 in 10.0 mi SSW 6.9 mph - N/A   Clear
11:16 PM 71.6 °F - 50.0 °F 46% 29.91 in 10.0 mi SSW 6.9 mph - N/A   Clear
11:36 PM 71.6 °F - 50.0 °F 46% 29.91 in 10.0 mi SW 6.9 mph - N/A   Clear
11:56 PM 71.6 °F - 50.0 °F 46% 29.91 in 10.0 mi SSW 8.1 mph - N/A   Clear